sat.trackr.live / text

‹ back to catalog

FALCONSAT-6

NORAD 43815 · 2018-099BK

PAYLOAD ACTIVE UNKNOWN

§ Identity

Operator
Country
US
Launch date
2018-12-03
Launch site
AFWTR
Launch vehicle
Mass (kg)
RCS (m²)

External: N2YO · Heavens-Above · Gunter

§ Orbital elements

Epoch: 2026-09-18T03:29:55.761792Z

Period
94.25 min
Inclination
97.3726°
Eccentricity
0.0014416
Mean motion
15.27835700 rev/d
Perigee alt
472.4 km
Apogee alt
492.2 km
Semi-major
6,860.4 km
B*
9.0503e-5
RAAN
336.1592°
Arg perigee
339.1220°
Mean anomaly
82.4211°
Rev number
42,792

§ Raw data

FALCONSAT-61 43815U 18099BK  26261.14578428  .00002391  00000+0  90503-4 0  99992 43815  97.3726 336.1592 0014416 339.1220  82.4211 15.27835700427922

JSON: /api/v1/satellites/43815 · /tle

For live sub-satellite position, see the globe view (requires WebGL).

§ Visibility from observer

Set your observer location to see the next 7 days of passes ≥ 10°. The values pass through the URL so the page stays shareable.

No JS? Fill the form by hand. The geolocation button needs JavaScript.